This is the latest recevied weather packets stored in our database for station/object WV8BRW. If no packets are shown the sender has not sent any weather packets the latest 10 day(s).
| Time | Temp. | Humidity | Pressure | Rain* | Wind** | Luminosity | Snow |
|---|---|---|---|---|---|---|---|
| 1777685692 | 9.44° C | 71% | 1014.8 hPa | 0 mm | - | 0 W/m² | - |
| 1777685388 | 9.44° C | 71% | 1014.7 hPa | 0 mm | - | 0 W/m² | - |
| 1777685086 | 9.44° C | 71% | 1014.6 hPa | 0 mm | - | 0 W/m² | - |
| 1777684784 | 9.44° C | 70% | 1014.5 hPa | 0 mm | - | 0 W/m² | - |
| 1777684479 | 9.44° C | 70% | 1014.6 hPa | 0 mm | - | 0 W/m² | - |
| 1777684177 | 10° C | 69% | 1014.3 hPa | 0 mm | - | 0 W/m² | - |
| 1777683873 | 10° C | 69% | 1014.4 hPa | 0 mm | - | 0 W/m² | - |
| 1777683570 | 10° C | 69% | 1014.1 hPa | 0 mm | - | 0 W/m² | - |
| 1777683268 | 10° C | 69% | 1014.1 hPa | 0 mm | - | 0 W/m² | - |
| 1777682966 | 10.56° C | 69% | 1014.2 hPa | 0 mm | - | 0 W/m² | - |
| 1777682661 | 10.56° C | 69% | 1013.9 hPa | 0 mm | - | 0 W/m² | - |
| 1777682358 | 10.56° C | 69% | 1013.5 hPa | 0 mm | - | 0 W/m² | - |
| 1777682056 | 11.11° C | 69% | 1013.5 hPa | 0 mm | - | 0 W/m² | - |
| 1777681752 | 11.11° C | 68% | 1013.4 hPa | 0 mm | - | 0 W/m² | - |
| 1777681450 | 11.67° C | 70% | 1013.3 hPa | 0 mm | - | 1 W/m² | - |
| 1777681147 | 11.67° C | 70% | 1013.1 hPa | 0 mm | - | 1 W/m² | - |
| 1777680844 | 11.67° C | 70% | 1013.2 hPa | 0 mm | - | 0 W/m² | - |
| 1777680541 | 11.67° C | 70% | 1013.1 hPa | 0 mm | - | 1 W/m² | - |
| 1777680240 | 11.67° C | 71% | 1013.1 hPa | 0 mm | - | 2 W/m² | - |
| 1777679935 | 12.22° C | 70% | 1012.7 hPa | 0 mm | - | 2 W/m² | - |
| 1777679631 | 12.22° C | 69% | 1012.7 hPa | 0 mm | - | 10 W/m² | - |
| 1777679327 | 12.22° C | 68% | 1012.7 hPa | 0 mm | - | 19 W/m² | - |
| 1777679024 | 12.22° C | 67% | 1012.4 hPa | 0 mm | - | 17 W/m² | - |
| 1777678722 | 12.78° C | 66% | 1012.1 hPa | 0 mm | - | 32 W/m² | - |
| 1777678419 | 12.78° C | 65% | 1012.2 hPa | 0 mm | - | 56 W/m² | - |
* Rain latest hour (hover to see other rain measurements)
** Current wind speed in m/s (hover to see current wind gust speed)